Startpagina
METAR-TAF:

METAR-TAF

Vliegvelden :

Deer Park Airport

Deer Park, Washington, Verenigde Staten

breedte: 47-58-27N, lengte: 117-25-42W, hoogte: 672 m

Actueel weer

Dit bericht is 1 uur en het 2 minuten geleden gemaakt, om 10:53 UTC
Weinig wind
Temperatuur -2°C
Vochtigheid 86%
Druk 1023 hPa
Zicht: 16.1 km
Onbewolkt

METAR: KDEW 251053Z AUTO 00000KT 10SM CLR M02/M04 A3021 RMK AO2 SLP240 T10171044

Tijdstip: 04:55 (11:55 UTC)


TAF: ontbreekt

Waarnemingen en weersverwachtingen van meer dan 4000 vliegvelden (METAR en TAF).

De beschikbare stations zijn de gele en rode punten op de kaart.

Ga met uw muis naar het station om de naam te zien.

Klik dan om waarnemingen en weersverwachtingen te zien.

kaart wijzigen: klik op de groene knoppen met een zwart kruis om in te zoomen, op de groene knop met een streepje om uit te zoomen of op de groene pijlen voor aangrenzende kaarten.


METAR-TAF: